Meteo pe oră la Aberin

Astăzi, 29 Iulie, Joi

Timp Temperatura Precipitaţii Vânt Presiune Umiditate
00:00 +15°C° 0 mm 2 m/s 716 mmHg 90%
01:00 +14°C° 0 mm 2 m/s 716 mmHg 90%
02:00 +14°C° 0 mm 2 m/s 716 mmHg 90%
03:00 +14°C° 0 mm 2 m/s 716 mmHg 90%
04:00 +14°C° 0 mm 1 m/s 716 mmHg 88%
05:00 +15°C° 0 mm 1 m/s 716 mmHg 86%
06:00 +15°C° 0 mm 1 m/s 716 mmHg 84%
07:00 +19°C° 0 mm 1 m/s 716 mmHg 75%
08:00 +21°C° 0 mm 1 m/s 716 mmHg 67%
09:00 +24°C° 0 mm 2 m/s 716 mmHg 58%
10:00 +26°C° 0 mm 2 m/s 716 mmHg 52%
11:00 +28°C° 0 mm 2 m/s 715 mmHg 46%
12:00 +31°C° 0 mm 3 m/s 715 mmHg 41%
13:00 +33°C° 0 mm 3 m/s 715 mmHg 38%
14:00 +34°C° 0 mm 2 m/s 714 mmHg 35%
15:00 +35°C° 0 mm 2 m/s 714 mmHg 32%
16:00 +32°C° 0 mm 2 m/s 713 mmHg 38%
17:00 +31°C° 0 mm 3 m/s 713 mmHg 44%
18:00 +29°C° 0 mm 3 m/s 713 mmHg 49%
19:00 +26°C° 0.1 mm 3 m/s 713 mmHg 62%
20:00 +22°C° 0.1 mm 3 m/s 714 mmHg 75%
21:00 +19°C° 0.1 mm 3 m/s 714 mmHg 88%
22:00 +18°C° 0.3 mm 3 m/s 714 mmHg 89%
23:00 +17°C° 0.3 mm 3 m/s 714 mmHg 90%

Mâine, 30 Iulie, Vineri

Timp Temperatura Precipitaţii Vânt Presiune Umiditate
00:00 +17°C° 0.3 mm 3 m/s 714 mmHg 91%
01:00 +17°C° 0 mm 3 m/s 714 mmHg 91%
02:00 +16°C° 0 mm 3 m/s 714 mmHg 92%
03:00 +16°C° 0 mm 2 m/s 714 mmHg 92%
04:00 +16°C° 0 mm 2 m/s 714 mmHg 91%
05:00 +16°C° 0 mm 2 m/s 715 mmHg 90%
06:00 +16°C° 0 mm 2 m/s 715 mmHg 89%
07:00 +18°C° 0 mm 3 m/s 715 mmHg 81%
08:00 +19°C° 0 mm 3 m/s 715 mmHg 73%
09:00 +20°C° 0 mm 3 m/s 716 mmHg 65%
10:00 +22°C° 0 mm 4 m/s 716 mmHg 56%
11:00 +25°C° 0 mm 4 m/s 716 mmHg 47%
12:00 +27°C° 0 mm 4 m/s 715 mmHg 37%
13:00 +27°C° 0 mm 5 m/s 715 mmHg 39%
14:00 +27°C° 0 mm 6 m/s 715 mmHg 41%
15:00 +27°C° 0 mm 7 m/s 715 mmHg 44%
16:00 +26°C° 0 mm 7 m/s 715 mmHg 50%
17:00 +23°C° 0 mm 6 m/s 715 mmHg 56%
18:00 +22°C° 0 mm 6 m/s 715 mmHg 62%
19:00 +20°C° 0 mm 5 m/s 716 mmHg 70%
20:00 +18°C° 0 mm 4 m/s 716 mmHg 79%
21:00 +16°C° 0 mm 3 m/s 716 mmHg 87%
22:00 +16°C° 0 mm 3 m/s 716 mmHg 89%
23:00 +14°C° 0 mm 3 m/s 715 mmHg 90%

Poimâine, 31 Iulie, Sâmbătă

Timp Temperatura Precipitaţii Vânt Presiune Umiditate
00:00 +14°C° 0 mm 3 m/s 715 mmHg 91%
01:00 +14°C° 0 mm 3 m/s 715 mmHg 90%
02:00 +14°C° 0 mm 3 m/s 715 mmHg 88%
03:00 +14°C° 0 mm 3 m/s 715 mmHg 87%
04:00 +14°C° 0 mm 3 m/s 715 mmHg 84%
05:00 +14°C° 0 mm 3 m/s 715 mmHg 82%
06:00 +14°C° 0 mm 3 m/s 715 mmHg 79%
07:00 +15°C° 0 mm 4 m/s 715 mmHg 74%
08:00 +17°C° 0 mm 4 m/s 715 mmHg 69%
09:00 +18°C° 0 mm 4 m/s 715 mmHg 64%
10:00 +19°C° 0.1 mm 5 m/s 715 mmHg 61%
11:00 +19°C° 0.1 mm 5 m/s 715 mmHg 58%
12:00 +20°C° 0.1 mm 5 m/s 715 mmHg 55%
13:00 +20°C° 0.1 mm 5 m/s 715 mmHg 54%
14:00 +20°C° 0.1 mm 6 m/s 715 mmHg 52%
15:00 +20°C° 0.1 mm 6 m/s 715 mmHg 51%
16:00 +20°C° 0 mm 6 m/s 715 mmHg 52%
17:00 +19°C° 0 mm 6 m/s 715 mmHg 54%
18:00 +19°C° 0 mm 6 m/s 715 mmHg 55%
19:00 +16°C° 0 mm 5 m/s 716 mmHg 65%
20:00 +15°C° 0 mm 4 m/s 716 mmHg 75%
21:00 +13°C° 0 mm 3 m/s 716 mmHg 85%
22:00 +13°C° 0 mm 3 m/s 716 mmHg 85%
23:00 +13°C° 0 mm 3 m/s 716 mmHg 84%

1 August, Duminică

Timp Temperatura Precipitaţii Vânt Presiune Umiditate
00:00 +13°C° 0 mm 3 m/s 716 mmHg 83%
01:00 +14°C° 0 mm 2 m/s 716 mmHg 83%
02:00 +14°C° 0 mm 2 m/s 716 mmHg 82%
03:00 +14°C° 0 mm 2 m/s 716 mmHg 82%
04:00 +14°C° 0 mm 2 m/s 716 mmHg 83%
05:00 +13°C° 0 mm 2 m/s 716 mmHg 83%
06:00 +13°C° 0 mm 2 m/s 716 mmHg 84%
07:00 +15°C° 0 mm 2 m/s 716 mmHg 74%
08:00 +17°C° 0 mm 2 m/s 716 mmHg 63%
09:00 +19°C° 0 mm 2 m/s 716 mmHg 53%
10:00 +21°C° 0 mm 2 m/s 716 mmHg 48%
11:00 +23°C° 0 mm 2 m/s 716 mmHg 44%
12:00 +24°C° 0 mm 3 m/s 716 mmHg 39%
13:00 +25°C° 0 mm 4 m/s 716 mmHg 39%
14:00 +25°C° 0 mm 5 m/s 715 mmHg 40%
15:00 +24°C° 0 mm 6 m/s 715 mmHg 40%
16:00 +23°C° 0 mm 6 m/s 715 mmHg 44%
17:00 +22°C° 0 mm 5 m/s 715 mmHg 48%
18:00 +21°C° 0 mm 5 m/s 715 mmHg 53%
19:00 +19°C° 0 mm 5 m/s 715 mmHg 61%
20:00 +17°C° 0 mm 4 m/s 716 mmHg 70%
21:00 +14°C° 0 mm 3 m/s 716 mmHg 78%
22:00 +14°C° 0 mm 3 m/s 716 mmHg 81%
23:00 +14°C° 0 mm 2 m/s 716 mmHg 83%

2 August, Luni

Timp Temperatura Precipitaţii Vânt Presiune Umiditate
00:00 +14°C° 0 mm 2 m/s 716 mmHg 86%
01:00 +14°C° 0 mm 2 m/s 715 mmHg 87%
02:00 +14°C° 0 mm 2 m/s 715 mmHg 88%
03:00 +13°C° 0 mm 1 m/s 715 mmHg 89%
04:00 +13°C° 0 mm 1 m/s 715 mmHg 88%
05:00 +14°C° 0 mm 1 m/s 715 mmHg 87%
06:00 +14°C° 0 mm 1 m/s 715 mmHg 86%
07:00 +15°C° 0.1 mm 1 m/s 715 mmHg 78%
08:00 +18°C° 0.1 mm 1 m/s 716 mmHg 70%
09:00 +20°C° 0.1 mm 1 m/s 716 mmHg 62%
10:00 +21°C° 0.1 mm 1 m/s 716 mmHg 60%
11:00 +21°C° 0.1 mm 2 m/s 716 mmHg 57%
12:00 +24°C° 0.1 mm 2 m/s 715 mmHg 54%
13:00 +25°C° 0 mm 2 m/s 715 mmHg 51%
14:00 +26°C° 0 mm 2 m/s 715 mmHg 47%
15:00 +27°C° 0 mm 3 m/s 714 mmHg 43%
16:00 +25°C° 0.1 mm 3 m/s 714 mmHg 50%
17:00 +23°C° 0.1 mm 4 m/s 714 mmHg 56%
18:00 +21°C° 0.1 mm 4 m/s 714 mmHg 63%
19:00 +19°C° 0.7 mm 4 m/s 714 mmHg 72%
20:00 +17°C° 0.7 mm 3 m/s 715 mmHg 82%
21:00 +15°C° 0.7 mm 2 m/s 715 mmHg 91%
22:00 +15°C° 0.6 mm 2 m/s 715 mmHg 92%
23:00 +15°C° 0.6 mm 2 m/s 715 mmHg 92%

3 August, Marţi

Timp Temperatura Precipitaţii Vânt Presiune Umiditate
00:00 +15°C° 0.6 mm 2 m/s 715 mmHg 93%
01:00 +15°C° 0.7 mm 2 m/s 715 mmHg 93%
02:00 +15°C° 0.7 mm 2 m/s 715 mmHg 92%
03:00 +15°C° 0.7 mm 2 m/s 715 mmHg 92%
04:00 +15°C° 0.3 mm 2 m/s 715 mmHg 92%
05:00 +15°C° 0.3 mm 2 m/s 715 mmHg 91%
06:00 +15°C° 0.3 mm 2 m/s 715 mmHg 90%
07:00 +16°C° 0.3 mm 2 m/s 715 mmHg 88%
08:00 +16°C° 0.3 mm 2 m/s 715 mmHg 86%
09:00 +16°C° 0.3 mm 2 m/s 716 mmHg 85%
10:00 +17°C° 0.1 mm 2 m/s 716 mmHg 80%
11:00 +18°C° 0.1 mm 3 m/s 716 mmHg 75%
12:00 +19°C° 0.1 mm 3 m/s 716 mmHg 70%
13:00 +20°C° 0 mm 3 m/s 716 mmHg 64%
14:00 +21°C° 0 mm 4 m/s 716 mmHg 59%
15:00 +22°C° 0 mm 4 m/s 716 mmHg 54%
16:00 +22°C° 0 mm 4 m/s 716 mmHg 56%
17:00 +21°C° 0 mm 5 m/s 716 mmHg 58%
18:00 +20°C° 0 mm 5 m/s 716 mmHg 61%
19:00 +19°C° 0 mm 4 m/s 716 mmHg 68%
20:00 +17°C° 0 mm 3 m/s 716 mmHg 76%
21:00 +15°C° 0 mm 2 m/s 716 mmHg 83%
22:00 +15°C° 0 mm 2 m/s 716 mmHg 84%
23:00 +15°C° 0 mm 2 m/s 716 mmHg 86%
Arată mai mult

Formular de consimțământ

Meteoprog și furnizorii noștri de servicii pot stoca și accesa date personale, precum cookies, identificatori de dispozitiv sau alte tehnologii similare pe dispozitivul dumneavoastră și procesa astfel de date pentru a personaliza conținutul și reclamele, dar și pentru a oferi caracteristici de social media și pentru a analiza traficul.

  • Stocarea și/sau accesarea informațiilor pe dispozitivul dumneavoastră

    Cookies, identificatori de dispozitiv sau alte informații pot fi stocate sau accesate pe dispozitiv în scopurile indicate mai sus.

  • Reclame și conținut personalizat, evaluarea reclamelor și a conținutului, informații despre audiențe și dezvoltarea produselor

    Reclamele și conținutul pot fi personalizate pe baza unui profil. Pot fi adăugate date suplimentare pentru a personaliza mai bine reclamele și conținutul. Performanța reclamelor și conținutului poate fi măsurată. Pot fi obținute informații despre utilizatorii care au văzut reclamele și conținutul. Aceste date pot fi utilizate pentru a dezvolta sau îmbunătăți experiența utilizatorilor, sistemele și software-ul.

Dând clic pe ‘Sunt de acord’, permiteți utilizarea cookie-urilor menționate, a identificatorilor de dispozitiv, balizelor web sau altor tehnologii similare. Setările pot fi modificate din browser-ul dispozitivului dumneavoastră.

În anumite scopuri, interesele legitime pot prima asupra consimțământului. Puteți citi mai multe informații în acest sens în Politica privind Confidențialitatea Datelor și Cookie.